BAW466 EGLL-LEBL

Flight info

Callsign BAW466
Flight time 1h 42m
Altitude 27000
Route MAXIT Y803 MID L151 SITET UN859 LGL/N0435F330 UN859 SOPIL DCT BALAN DCT EVPOK DCT NARAK DCT GAI DCT LOMRA DCT ROCAN DCT PUMAL
Aircraft A319/M-SDE3FGHIRWY/LB1

Departure

Time 2026-05-04 06:33
Airport London Heathrow Airport (EGLL)

Arrival

Time 2026-05-04 08:16
Airport Josep Tarradellas Barcelona-El Prat Airport (LEBL)
Time Latitude Longitude Altitude Speed Heading
2026-05-04 05:48 51.46932 -0.48647 90 ft 0 kts 360°
2026-05-04 06:22 51.46930 -0.48647 86 ft 3 kts 360°
2026-05-04 06:25 51.46867 -0.48493 87 ft 9 kts 126°
2026-05-04 06:25 51.46800 -0.48470 86 ft 9 kts 179°
2026-05-04 06:26 51.46726 -0.48469 86 ft 10 kts 179°
2026-05-04 06:26 51.46662 -0.48441 87 ft 11 kts 130°
2026-05-04 06:26 51.46652 -0.48295 86 ft 16 kts 90°
2026-05-04 06:26 51.46653 -0.48085 86 ft 21 kts 89°
2026-05-04 06:27 51.46656 -0.47051 86 ft 23 kts 90°
2026-05-04 06:28 51.46657 -0.46772 88 ft 28 kts 90°
2026-05-04 06:28 51.46659 -0.46452 86 ft 31 kts 90°
2026-05-04 06:28 51.46660 -0.46198 87 ft 20 kts 90°
2026-05-04 06:28 51.46660 -0.45945 86 ft 26 kts 90°
2026-05-04 06:29 51.46661 -0.45634 86 ft 28 kts 89°
2026-05-04 06:29 51.46662 -0.45368 86 ft 23 kts 90°
2026-05-04 06:29 51.46663 -0.45074 86 ft 29 kts 90°
2026-05-04 06:29 51.46664 -0.44753 87 ft 27 kts 90°
2026-05-04 06:30 51.46663 -0.44448 86 ft 24 kts 88°
2026-05-04 06:30 51.46666 -0.44206 86 ft 23 kts 89°
2026-05-04 06:30 51.46666 -0.43995 86 ft 20 kts 90°
2026-05-04 06:30 51.46638 -0.43839 86 ft 15 kts 155°
2026-05-04 06:31 51.46603 -0.43829 86 ft 0 kts 179°
2026-05-04 06:31 51.46601 -0.43829 86 ft 2 kts 179°
2026-05-04 06:31 51.46569 -0.43829 85 ft 7 kts 181°
2026-05-04 06:32 51.46510 -0.43848 90 ft 10 kts 218°
2026-05-04 06:33 51.46471 -0.51739 1610 ft 165 kts 268°
2026-05-04 06:34 51.46183 -0.53631 1910 ft 186 kts 246°
2026-05-04 06:34 51.45529 -0.55532 2287 ft 204 kts 241°
2026-05-04 06:34 51.44781 -0.57652 2500 ft 234 kts 240°
2026-05-04 06:34 51.43926 -0.60020 2997 ft 255 kts 236°
2026-05-04 06:35 51.42554 -0.61864 3779 ft 265 kts 201°
2026-05-04 06:36 51.29907 -0.56729 9480 ft 278 kts 188°
2026-05-04 06:37 51.27985 -0.57184 10321 ft 280 kts 190°
2026-05-04 06:37 51.26029 -0.57693 10829 ft 295 kts 191°
2026-05-04 06:37 51.23909 -0.58305 10852 ft 325 kts 192°
2026-05-04 06:37 51.21653 -0.58972 11580 ft 326 kts 190°
2026-05-04 06:38 51.19416 -0.59491 12478 ft 326 kts 188°
2026-05-04 06:38 51.17151 -0.59947 13232 ft 330 kts 188°
2026-05-04 06:40 51.00895 -0.56126 17821 ft 356 kts 156°
2026-05-04 06:40 50.98648 -0.54465 18448 ft 358 kts 157°
2026-05-04 06:40 50.96394 -0.52864 18999 ft 361 kts 159°
2026-05-04 06:40 50.94069 -0.51313 19562 ft 364 kts 160°
2026-05-04 06:41 50.91676 -0.49806 20139 ft 367 kts 161°
2026-05-04 06:41 50.89318 -0.48375 20686 ft 369 kts 162°
2026-05-04 06:41 50.86904 -0.46941 21265 ft 372 kts 162°
2026-05-04 06:41 50.84473 -0.45500 21822 ft 375 kts 163°
2026-05-04 06:42 50.82024 -0.44038 22374 ft 378 kts 163°
2026-05-04 06:42 50.79557 -0.42556 22916 ft 381 kts 163°
2026-05-04 06:42 50.77076 -0.41065 23450 ft 383 kts 163°
2026-05-04 06:44 50.59425 -0.30438 26835 ft 389 kts 163°
2026-05-04 06:44 50.56887 -0.28922 27308 ft 390 kts 163°
2026-05-04 06:44 50.54346 -0.27401 27771 ft 392 kts 163°
2026-05-04 06:45 50.51794 -0.25877 28231 ft 393 kts 163°
2026-05-04 06:45 50.49234 -0.24350 28682 ft 394 kts 163°
2026-05-04 06:45 50.46670 -0.22824 29126 ft 395 kts 163°
2026-05-04 06:45 50.44093 -0.21290 29560 ft 396 kts 163°
2026-05-04 06:46 50.41513 -0.19756 29979 ft 398 kts 163°
2026-05-04 06:46 50.38916 -0.18214 30341 ft 399 kts 163°
2026-05-04 06:46 50.36316 -0.16674 30638 ft 401 kts 163°
2026-05-04 06:46 50.33728 -0.15145 30948 ft 403 kts 163°
2026-05-04 06:48 50.15776 -0.04189 34331 ft 390 kts 160°
2026-05-04 06:48 50.13314 -0.02438 34684 ft 389 kts 159°
2026-05-04 06:49 50.10855 -0.00687 35035 ft 387 kts 161°
2026-05-04 06:50 49.92530 0.06870 35996 ft 410 kts 169°
2026-05-04 06:51 49.86901 0.09079 35990 ft 424 kts 169°
2026-05-04 06:51 49.81094 0.11358 35993 ft 437 kts 169°
2026-05-04 06:52 49.75137 0.13678 35995 ft 443 kts 169°
2026-05-04 06:52 49.69145 0.16005 35998 ft 444 kts 169°
2026-05-04 06:53 49.63154 0.18382 36001 ft 445 kts 168°
2026-05-04 06:53 49.57170 0.20814 36002 ft 445 kts 168°
2026-05-04 06:54 49.51186 0.23233 35993 ft 445 kts 168°
2026-05-04 06:54 49.45204 0.25634 36001 ft 444 kts 168°
2026-05-04 06:55 49.39222 0.28025 36002 ft 444 kts 168°
2026-05-04 06:55 49.33239 0.30407 35999 ft 444 kts 168°
2026-05-04 06:57 49.09404 0.40417 35967 ft 444 kts 167°
2026-05-04 06:58 49.03449 0.42896 35960 ft 443 kts 167°
2026-05-04 06:58 48.97542 0.45359 35977 ft 443 kts 167°
2026-05-04 06:59 48.92557 0.47426 35975 ft 443 kts 167°
2026-05-04 06:59 48.85646 0.50288 35975 ft 443 kts 167°
2026-05-04 07:01 48.62772 0.59414 35969 ft 442 kts 168°
2026-05-04 07:02 48.56861 0.61717 35969 ft 441 kts 168°
2026-05-04 07:02 48.50913 0.64035 35967 ft 441 kts 168°
2026-05-04 07:03 48.44984 0.66435 35969 ft 441 kts 167°
2026-05-04 07:03 48.39063 0.68873 35962 ft 441 kts 167°
2026-05-04 07:04 48.33145 0.71286 35961 ft 440 kts 167°
2026-05-04 07:04 48.27232 0.73673 35960 ft 440 kts 168°
2026-05-04 07:05 48.21314 0.76034 35941 ft 440 kts 168°
2026-05-04 07:05 48.15392 0.78354 35947 ft 439 kts 168°
2026-05-04 07:06 48.06520 0.81816 35947 ft 439 kts 168°
2026-05-04 07:07 48.00606 0.84132 35942 ft 439 kts 168°
2026-05-04 07:09 47.77057 0.93294 35953 ft 437 kts 168°
2026-05-04 07:09 47.71173 0.95573 35953 ft 436 kts 168°
2026-05-04 07:10 47.65296 0.97844 35955 ft 436 kts 168°
2026-05-04 07:12 47.41746 1.06371 35954 ft 432 kts 179°
2026-05-04 07:12 47.35740 1.06276 35957 ft 431 kts 182°
2026-05-04 07:13 47.29740 1.06139 35959 ft 431 kts 182°
2026-05-04 07:13 47.23741 1.05998 35958 ft 431 kts 182°
2026-05-04 07:14 47.08738 1.05638 35961 ft 431 kts 182°
2026-05-04 07:15 47.02737 1.05506 35960 ft 431 kts 183°
2026-05-04 07:15 46.96737 1.05301 35958 ft 431 kts 184°
2026-05-04 07:16 46.90755 1.05016 35948 ft 431 kts 184°
2026-05-04 07:16 46.84802 1.04733 35948 ft 431 kts 184°
2026-05-04 07:17 46.78813 1.04472 35950 ft 431 kts 184°
2026-05-04 07:17 46.72828 1.04222 35950 ft 431 kts 184°
2026-05-04 07:18 46.66793 1.03966 35953 ft 431 kts 184°
2026-05-04 07:18 46.60850 1.03716 35951 ft 430 kts 184°
2026-05-04 07:19 46.54862 1.03464 35939 ft 430 kts 184°
2026-05-04 07:19 46.48893 1.04232 35943 ft 435 kts 170°
2026-05-04 07:20 46.42992 1.06231 35951 ft 435 kts 170°
2026-05-04 07:20 46.37087 1.08196 35951 ft 435 kts 170°
2026-05-04 07:22 46.13474 1.16034 35949 ft 435 kts 170°
2026-05-04 07:23 46.07581 1.17978 35955 ft 435 kts 170°
2026-05-04 07:23 46.01680 1.19924 35938 ft 435 kts 171°
2026-05-04 07:24 45.95785 1.21867 35937 ft 434 kts 171°
2026-05-04 07:24 45.89929 1.23788 35952 ft 434 kts 171°
2026-05-04 07:26 45.66337 1.31490 35974 ft 435 kts 171°
2026-05-04 07:27 45.60434 1.33406 35973 ft 435 kts 171°
2026-05-04 07:27 45.54531 1.35321 35973 ft 435 kts 171°
2026-05-04 07:28 45.48628 1.37234 35972 ft 435 kts 171°
2026-05-04 07:28 45.42726 1.39140 35972 ft 435 kts 171°
2026-05-04 07:29 45.36816 1.41033 35963 ft 435 kts 171°
2026-05-04 07:29 45.30914 1.42925 35969 ft 435 kts 171°
2026-05-04 07:30 45.25011 1.44823 35965 ft 434 kts 171°
2026-05-04 07:30 45.19121 1.46711 35963 ft 434 kts 171°
2026-05-04 07:31 45.13221 1.48592 35954 ft 434 kts 171°
2026-05-04 07:33 44.89591 1.56098 35974 ft 436 kts 171°
2026-05-04 07:33 44.83677 1.57970 35975 ft 436 kts 171°
2026-05-04 07:34 44.77755 1.59840 35974 ft 436 kts 171°
2026-05-04 07:34 44.71882 1.61683 35970 ft 435 kts 172°
2026-05-04 07:35 44.65971 1.63525 35967 ft 435 kts 171°
2026-05-04 07:35 44.60055 1.65371 35962 ft 436 kts 172°
2026-05-04 07:36 44.54133 1.67228 35969 ft 436 kts 171°
2026-05-04 07:38 44.30429 1.74611 35968 ft 436 kts 172°
2026-05-04 07:38 44.24477 1.76189 35973 ft 435 kts 175°
2026-05-04 07:39 44.18496 1.77422 35973 ft 434 kts 176°
2026-05-04 07:39 44.12511 1.78641 35970 ft 435 kts 175°
2026-05-04 07:40 44.06528 1.79940 35974 ft 435 kts 175°
2026-05-04 07:40 44.00588 1.81271 35956 ft 435 kts 175°
2026-05-04 07:41 43.94607 1.82572 35954 ft 434 kts 177°
2026-05-04 07:41 43.88610 1.83332 35968 ft 432 kts 180°
2026-05-04 07:42 43.82603 1.83758 35981 ft 432 kts 181°
2026-05-04 07:42 43.76595 1.84229 35984 ft 433 kts 180°
2026-05-04 07:43 43.70589 1.84806 35980 ft 433 kts 180°
2026-05-04 07:43 43.64583 1.85403 35979 ft 433 kts 180°
2026-05-04 07:44 43.58580 1.85985 35980 ft 433 kts 180°
2026-05-04 07:44 43.52570 1.86555 35978 ft 433 kts 180°
2026-05-04 07:45 43.46562 1.87136 35972 ft 433 kts 180°
2026-05-04 07:45 43.40557 1.87720 35950 ft 433 kts 180°
2026-05-04 07:46 43.37561 1.88007 35579 ft 431 kts 181°
2026-05-04 07:46 43.34571 1.88291 34964 ft 430 kts 181°
2026-05-04 07:46 43.31594 1.88574 34374 ft 428 kts 181°
2026-05-04 07:46 43.28619 1.88856 33666 ft 428 kts 181°
2026-05-04 07:47 43.25649 1.89136 33017 ft 429 kts 180°
2026-05-04 07:47 43.22672 1.89417 32741 ft 429 kts 180°
2026-05-04 07:47 43.19691 1.89697 32570 ft 431 kts 181°
2026-05-04 07:49 42.99661 1.91608 30936 ft 435 kts 181°
2026-05-04 07:49 42.96645 1.91891 30348 ft 432 kts 181°
2026-05-04 07:49 42.93666 1.92174 29694 ft 428 kts 180°
2026-05-04 07:50 42.90709 1.92459 28994 ft 423 kts 180°
2026-05-04 07:50 42.87790 1.92741 28309 ft 419 kts 180°
2026-05-04 07:50 42.84899 1.93018 27640 ft 414 kts 180°
2026-05-04 07:50 42.82042 1.93287 26986 ft 409 kts 180°
2026-05-04 07:51 42.79219 1.93553 26347 ft 405 kts 180°
2026-05-04 07:51 42.76421 1.93817 25723 ft 401 kts 180°
2026-05-04 07:51 42.73650 1.94080 25120 ft 398 kts 180°
2026-05-04 07:51 42.70898 1.94339 24517 ft 394 kts 180°
2026-05-04 07:52 42.68176 1.94598 23937 ft 391 kts 180°
2026-05-04 07:52 42.65469 1.94928 23324 ft 391 kts 178°
2026-05-04 07:52 42.62782 1.95403 22647 ft 389 kts 176°
2026-05-04 07:52 42.60151 1.95954 21987 ft 387 kts 175°
2026-05-04 07:53 42.57509 1.96545 21331 ft 383 kts 175°
2026-05-04 07:54 42.39261 2.00334 16959 ft 373 kts 175°
2026-05-04 07:55 42.36742 2.01159 16303 ft 376 kts 162°
2026-05-04 07:55 42.34412 2.02797 15678 ft 378 kts 150°
2026-05-04 07:55 42.32215 2.04725 15062 ft 375 kts 150°
2026-05-04 07:55 42.30033 2.06637 14457 ft 372 kts 149°
2026-05-04 07:56 42.27872 2.08525 13870 ft 368 kts 149°
2026-05-04 07:56 42.25730 2.10390 13239 ft 365 kts 149°
2026-05-04 07:56 42.23627 2.12217 12864 ft 354 kts 149°
2026-05-04 07:56 42.21583 2.13995 12466 ft 345 kts 150°
2026-05-04 07:57 42.19596 2.15723 12081 ft 336 kts 150°
2026-05-04 07:57 42.17650 2.17411 11701 ft 329 kts 150°
2026-05-04 07:57 42.15744 2.19060 11322 ft 323 kts 150°
2026-05-04 07:57 42.13872 2.20677 10948 ft 317 kts 150°
2026-05-04 07:58 42.12027 2.22272 10589 ft 313 kts 150°
2026-05-04 07:58 42.10208 2.23847 10229 ft 310 kts 150°
2026-05-04 07:58 42.08401 2.25411 9870 ft 308 kts 150°
2026-05-04 07:58 42.06605 2.26960 9478 ft 305 kts 150°
2026-05-04 07:59 42.04844 2.28479 9267 ft 296 kts 150°
2026-05-04 07:59 42.03123 2.29964 8999 ft 292 kts 150°
2026-05-04 07:59 42.01418 2.31433 8982 ft 291 kts 150°
2026-05-04 07:59 41.99712 2.32897 8988 ft 291 kts 150°
2026-05-04 08:00 41.98005 2.34361 8989 ft 291 kts 150°
2026-05-04 08:00 41.96298 2.35827 8986 ft 291 kts 150°
2026-05-04 08:00 41.94588 2.37297 8988 ft 290 kts 151°
2026-05-04 08:02 41.82981 2.47252 8980 ft 281 kts 151°
2026-05-04 08:02 41.81329 2.48666 8741 ft 280 kts 151°
2026-05-04 08:02 41.79695 2.50068 8482 ft 278 kts 151°
2026-05-04 08:03 41.78091 2.51446 8233 ft 278 kts 150°
2026-05-04 08:03 41.76459 2.52842 7983 ft 277 kts 150°
2026-05-04 08:03 41.74761 2.53998 7726 ft 271 kts 167°
2026-05-04 08:03 41.72911 2.54225 7482 ft 266 kts 189°
2026-05-04 08:04 41.71174 2.53496 7233 ft 260 kts 206°
2026-05-04 08:04 41.69554 2.52461 6956 ft 257 kts 206°
2026-05-04 08:04 41.67961 2.51443 6756 ft 251 kts 207°
2026-05-04 08:04 41.66397 2.50446 6564 ft 246 kts 206°
2026-05-04 08:05 41.64870 2.49472 6377 ft 241 kts 206°
2026-05-04 08:05 41.63380 2.48523 6182 ft 234 kts 206°
2026-05-04 08:05 41.61935 2.47604 5969 ft 226 kts 207°
2026-05-04 08:05 41.60537 2.46716 5773 ft 218 kts 206°
2026-05-04 08:06 41.59190 2.45860 5577 ft 210 kts 207°
2026-05-04 08:06 41.57895 2.45037 5366 ft 202 kts 207°
2026-05-04 08:06 41.56626 2.44229 5178 ft 202 kts 208°
2026-05-04 08:06 41.55363 2.43426 4980 ft 201 kts 207°
2026-05-04 08:08 41.46639 2.37908 3598 ft 185 kts 208°
2026-05-04 08:08 41.45502 2.37190 3402 ft 179 kts 208°
2026-05-04 08:10 41.37408 2.30458 2307 ft 172 kts 246°
2026-05-04 08:11 41.36916 2.29005 2305 ft 172 kts 246°
2026-05-04 08:11 41.35900 2.26011 2306 ft 180 kts 246°
2026-05-04 08:11 41.35386 2.24496 2244 ft 177 kts 246°
2026-05-04 08:12 41.34898 2.23064 2068 ft 165 kts 247°
2026-05-04 08:12 41.34432 2.21695 1870 ft 161 kts 247°
2026-05-04 08:12 41.33976 2.20356 1667 ft 158 kts 247°
2026-05-04 08:12 41.33525 2.19032 1457 ft 153 kts 247°
2026-05-04 08:13 41.33111 2.17819 1246 ft 137 kts 246°
2026-05-04 08:13 41.32736 2.16697 1074 ft 130 kts 247°
2026-05-04 08:13 41.32361 2.15606 890 ft 129 kts 246°
2026-05-04 08:13 41.31996 2.14515 745 ft 129 kts 247°
2026-05-04 08:14 41.31620 2.13431 585 ft 129 kts 247°
2026-05-04 08:14 41.31246 2.12340 385 ft 130 kts 247°
2026-05-04 08:14 41.30875 2.11266 204 ft 129 kts 248°
2026-05-04 08:16 41.29593 2.08243 18 ft 6 kts 155°
2026-05-04 08:16 41.29560 2.08262 18 ft 6 kts 155°
2026-05-04 08:16 41.29515 2.08290 19 ft 8 kts 155°
2026-05-04 08:17 41.29453 2.08326 18 ft 11 kts 156°
2026-05-04 08:17 41.29400 2.08349 18 ft 9 kts 178°
2026-05-04 08:17 41.29357 2.08289 18 ft 11 kts 245°
2026-05-04 08:17 41.29328 2.08202 19 ft 9 kts 245°
2026-05-04 08:19 41.29218 2.08159 18 ft 0 kts 182°